Content
SEND FEEDBACK

Daily
Averages
Monthly
Summary
Canada

QUEBEC CITY, QUEBEC


Home > North America > Canada > Quebec
Elevation: 72 meters     Latitude: 46 48N     Longitude: 071 23W

WEATHER
 
SELECT A DAY
Number of Records: 191,996;   Date Range: 6/30/96 - 7/23/14
 
SHARE

PRINT THIS DATA

[ ← Previous Day ]
WEATHER ALMANAC - 19 JANUARY, 2013
[ Next Day → ]
[ °F ]   °C
Weather ElementAverageHighLow
Temperature-9.4 °C-5.6 °C (7:00 pm)-16 °C (1:00 am)
Dewpoint-13.8 °C-7.2 °C (7:00 pm)-20 °C (1:00 am)
Humidity80.5 %93 % (5:00 pm)57 % (9:00 am)
Wind Speed12.4 km/h37 km/h (11:00 pm)
Wind Gust48.1 km/h (10:00 pm)
Weather ElementAverage
Visibility5 km
Wind DirectionENE (56.4 °)

Weather ElementTotal
Precipitation---
Heating Degree Days29.1 (Base 18.3)
Averaged from 40 records on 19 January, 2013
WEATHER CONDITIONS BREAKOUT
WIND DIRECTION BREAKOUT
WEATHER BY HOUR - 19 JANUARY, 2013
[ °F ]   °C
Local TimeTemperatureDewpointHumidityBarometerVisibilityWind DirectionWind SpeedGust SpeedPrecipitationEventsConditions
1:00 AM-15.6 °C-17.8 °C73 %1022 hPaNNE (20°)3.7 km/h
1:00 AM-16 °C-20 °C72 %1022 hPa8 kmNNE (20°)7.4 km/hSnowLight Snow
2:00 AM-16 °C-20 °C72 %1021.7 hPa6.4 kmNNE (20°)3.7 km/hSnowLight Snow
3:00 AM-15 °C-19 °C72 %1020.7 hPa6.4 kmNorth (360°)9.3 km/hSnowLight Snow
4:00 AM-15 °C-19 °C72 %1019.3 hPa4.8 kmNorth (10°)5.6 km/hSnowLight Snow
4:00 AM-15 °C-16.7 °C81 %1019.3 hPaCalm
5:00 AM-15 °C-18 °C78 %1018.3 hPa4.8 kmNNE (30°)3.7 km/hSnowLight Snow
6:00 AM-14 °C-18 °C72 %1017.6 hPa4.8 kmNNE (20°)9.3 km/hSnowLight Snow
7:00 AM-13.3 °C-15 °C81 %1016.6 hPaNE (40°)1.9 km/h
7:00 AM-14 °C-17 °C79 %1016.9 hPa3.2 kmNE (40°)5.6 km/hSnowLight Snow
8:00 AM-13 °C-16 °C79 %1016.3 hPa1.9 kmNE (40°)9.3 km/hSnowLight Snow
9:00 AM-12 °C-19 °C57 %1015.9 hPa1.6 kmNNE (20°)7.4 km/hSnowLight Snow
10:00 AM-10 °C-11.7 °C84 %1015.2 hPaNNE (30°)3.7 km/h
10:00 AM-10 °C-13 °C79 %1015.2 hPa2.4 kmNNE (20°)7.4 km/hSnowLight Snow
10:23 AM-10 °C-17.8 °C4.8 kmNNE (20°)7.4 km/hSnowLight Snow
11:00 AM-9 °C-12 °C79 %1014.2 hPa8 kmNNE (30°)7.4 km/hSnowLight Snow
11:53 AM-8 °C-17.8 °C2.4 kmNE (40°)7.4 km/hSnowLight Snow
12:00 PM-8 °C-11 °C79 %1013.2 hPa1.6 kmNNE (30°)7.4 km/hSnowLight Snow
1:00 PM-7.2 °C-8.9 °C83 %1012.2 hPaENE (70°)5.6 km/h
1:00 PM-8 °C-10 °C86 %1012.5 hPa2.4 kmNE (50°)5.6 km/hSnowLight Snow
2:00 PM-7 °C-9 °C86 %1012.5 hPa2.4 kmNE (40°)7.4 km/hSnowLight Snow
3:00 PM-7 °C-9 °C86 %1012.2 hPa2.9 kmENE (60°)7.4 km/hSnowLight Snow
3:49 PM-7 °C-17.8 °C6.4 kmNE (50°)7.4 km/hSnowLight Snow
4:00 PM-6.7 °C-7.8 °C89 %1012.5 hPaENE (60°)7.4 km/h
4:00 PM-7 °C-9 °C86 %1012.9 hPa2.9 kmENE (60°)9.3 km/hSnowLight Snow
5:00 PM-7 °C-8 °C93 %1012.9 hPa2.4 kmENE (70°)11.1 km/hSnowLight Snow
5:30 PM-7 °C-17.8 °C4.8 kmENE (70°)11.1 km/hSnowLight Snow
5:46 PM-7 °C-17.8 °C2.9 kmENE (60°)16.7 km/hSnowLight Snow
6:00 PM-7 °C-8 °C93 %1013.2 hPa4.8 kmENE (60°)16.7 km/hSnowLight Snow
7:00 PM-6 °C-8 °C86 %1013.9 hPa19.3 kmENE (60°)22.2 km/h31.5 km/hSnowLight Snow
7:00 PM-5.6 °C-7.2 °C85 %1013.5 hPaENE (70°)14.8 km/h
7:23 PM-6 °C-17.8 °C8 kmENE (70°)24.1 km/h33.3 km/hSnowLight Snow
7:41 PM-6 °C-17.8 °C1.9 kmENE (60°)29.6 km/h38.9 km/hSnowLight Snow
8:00 PM-6 °C-8 °C86 %1013.5 hPa3.2 kmENE (70°)18.5 km/h31.5 km/hSnowLight Snow
8:26 PM-7 °C-17.8 °C6.4 kmENE (70°)25.9 km/h46.3 km/hSnowLight Snow
9:00 PM-7 °C-9 °C86 %1012.9 hPa9.7 kmENE (70°)25.9 km/h44.4 km/hSnowLight Snow
10:00 PM-6.1 °C-8.3 °C76 %1012.2 hPaEast (80°)18.5 km/h
10:00 PM-7 °C-10 °C80 %1012.2 hPa9.7 kmENE (70°)31.5 km/h48.1 km/hSnowLight Snow
10:31 PM-7 °C-17.8 °C3.2 kmENE (70°)31.5 km/h44.4 km/hSnowLight Snow
11:00 PM-7 °C-9 °C86 %1011.2 hPa3.2 kmENE (70°)37 km/h48.1 km/hSnowLight Snow
Hourly data recorded from CYQB, located 0 kilometers away from Quebec City, Quebec







STORIES FROM OUR PARTNERS